Карточка аэропорта USRR

Внимание!
Информация на этой странице в стадии наполнения.
Если вы не увидели какой-то информации, или заметили неточность - пожалуйста сообщите нам!
Спасибо!
Команда RU-STAFF
Название аэропортаСургут
Название аэропорта (англ.)Surgut
Превышение196 ft. (59.7 m.)
Координаты61°20.502', 73°24.168'
Высота перехода700m
Эшелон переходаQFE>=742mm:FL040; QFE<=742mm:FL050
Коды ответчика5570-5577
Зона ОрВДТюмень РПИ (USTV)
Данные METARUSRR 250730Z 02005MPS 350V060 9999 SCT014CB BKN039 14/12 Q1002 R07/CLRD60 NOSIG RMK QFE747
Проноз погоды (TAF)USRR 250440Z 2506/2606 03007G14MPS 6000 SCT016CB TEMPO 2506/2515 02008G18MPS 2100 -SHRA BKN004 BKN011CB BECMG 2515/2517 35005G12MPS
NOTAMshow/hide NOTAM
AWOS   TABLE

Информация о ВПП

ВПП Длина ВПП (м.) Покрытие Курс ВПП Частота ILS
252780Асфальтобетон253109.1
072780Асфальтобетон73110.5

Диспетчерские позиции

Позывной Наименование органа УВД Частота
USRR_R_APPСургут - Круг120.300
USRR_TWRСургут-Вышка120.800
USRR_APPСургут-Подход129.300



Спутниковое изображение